sat.trackr.live / text

‹ back to catalog

STARLINK-34964

NORAD 65239 · 2025-179E

PAYLOAD ACTIVE UNKNOWN

§ Identity

Operator
Country
US
Launch date
2025-08-18
Launch site
AFWTR
Launch vehicle
Mass (kg)
RCS (m²)

Purposes: comms

External: N2YO · Heavens-Above · Gunter

§ Orbital elements

Epoch: 2026-05-25T02:49:16.124736Z

Period
95.64 min
Inclination
97.4527°
Eccentricity
0.0001784
Mean motion
15.05653038 rev/d
Perigee alt
548.3 km
Apogee alt
550.7 km
Semi-major
6,927.6 km
B*
1.3501e-4
RAAN
187.8544°
Arg perigee
135.3039°
Mean anomaly
224.8332°
Rev number
4,331

§ Raw data

STARLINK-349641 65239U 25179E   26145.11754774  .00001890  00000+0  13501-3 0  99932 65239  97.4527 187.8544 0001784 135.3039 224.8332 15.05653038 43313

JSON: /api/v1/satellites/65239 · /tle

For live sub-satellite position, see the globe view (requires WebGL).

§ Visibility from observer

Set your observer location to see the next 7 days of passes ≥ 10°. The values pass through the URL so the page stays shareable.

No JS? Fill the form by hand. The geolocation button needs JavaScript.